QPF
0.00 0.01 0.01 0.00 0.00 0.00 0.00 0.00 0.00 0.01 0.01 0.01 0.00 0.00 0.00 0.00 0.00 0.00 0.00 0.00 0.00 0.00 0.00 0.00 0.00 0.00 0.00 0.00 0.00 0.00 0.00 0.00 0.00 0.00 0.01 0.01 0.02 0.02
0.00 0.00 0.01 0.00 0.00 0.00 0.00 0.00 0.00 0.00 0.00 0.00 0.00 0.00 0.00 0.00 0.00 0.00 0.00 0.00 0.00 0.00 0.00 0.00 0.00 0.00 0.00 0.00 0.00 0.00 0.00 0.00 0.00 0.00 0.00 0.00 0.00 0.00
0.00 0.00 0.00 0.00 0.00 0.00 0.00 0.00 0.00 0.00 0.00 0.00 0.00 0.00 0.00 0.00 0.00 0.00 0.00 0.00 0.00 0.00 0.00 0.00 0.00 0.00 0.00 0.00 0.00 0.00 0.00 0.00 0.00 0.00 0.00 0.00 0.00 0.00
0.00 0.00 0.00 0.00 0.00 0.00 0.00 0.00 0.00 0.00 0.00 0.00 0.00 0.00 0.00 0.01 0.01 0.01 0.00 0.00 0.00 0.00 0.00 0.00 0.00 0.00 0.00 0.00 0.00 0.00 0.00 0.00 0.00 0.00 0.00 0.00 0.00 0.00
0.00 0.00 0.00 0.00 0.00 0.00 0.01 0.01 0.00 0.00 0.00 0.01 0.00 0.01 0.01 0.01 0.01 0.01 0.00 0.00 0.00 0.00 0.00 0.00 0.00 0.00 0.00 0.00 0.00 0.00 0.00 0.00 0.00 0.00 0.00 0.00 0.00 0.00
0.00 0.00 0.00 0.00 0.00 0.00 0.01 0.01 0.01 0.00 0.01 0.01 0.01 0.01 0.01 0.01 0.01 0.00 0.00 0.00 0.00 0.00 0.00 0.00 0.00 0.00 0.00 0.00 0.00 0.00 0.00 0.00 0.00 0.00 0.00 0.00 0.00 0.00
0.00 0.00 0.00 0.00 0.00 0.00 0.00 0.00 0.00 0.00 0.01 0.01 0.01 0.01 0.01 0.01 0.00 0.00 0.00 0.00 0.00 0.00 0.00 0.00 0.00 0.00 0.00 0.00 0.00 0.00 0.00 0.00 0.00 0.00 0.00 0.00 0.00 0.00
0.01 0.01 0.00 0.00 0.00 0.00 0.00 0.00 0.00 0.00 0.00 0.01 0.01 0.00 0.00 0.00 0.00 0.00 0.00 0.00 0.00 0.00 0.00 0.00 0.00 0.00 0.00 0.00 0.00 0.00 0.00 0.00 0.00 0.00 0.00 0.00 0.00 0.00
0.01 0.01 0.01 0.00 0.00 0.00 0.00 0.00 0.00 0.00 0.00 0.00 0.00 0.00 0.00 0.00 0.01 0.00 0.01 0.01 0.01 0.00 0.01 0.00 0.00 0.00 0.00 0.00 0.00 0.00 0.00 0.00 0.00 0.00 0.00 0.00 0.00 0.00
0.01 0.01 0.01 0.01 0.00 0.00 0.00 0.00 0.00 0.00 0.00 0.00 0.00 0.00 0.00 0.00 0.01 0.01 0.01 0.01 0.00 0.00 0.01 0.01 0.01 0.01 0.00 0.00 0.00 0.01 0.00 0.00 0.00 0.00 0.00 0.00 0.00 0.00
0.01 0.01 0.01 0.00 0.00 0.00 0.00 0.00 0.00 0.00 0.00 0.00 0.00 0.00 0.00 0.00 0.01 0.01 0.01 0.01 0.01 0.00 0.01 0.01 0.01 0.01 0.00 0.00 0.00 0.00 0.00 0.00 0.00 0.00 0.00 0.00 0.00 0.00
0.01 0.01 0.00 0.00 0.00 0.00 0.00 0.00 0.00 0.01 0.01 0.00 0.01 0.01 0.01 0.01 0.02 0.01 0.01 0.01 0.01 0.01 0.01 0.01 0.00 0.01 0.00 0.00 0.00 0.00 0.00 0.00 0.00 0.00 0.00 0.00 0.00 0.00
0.01 0.01 0.00 0.00 0.00 0.00 0.00 0.00 0.00 0.00 0.00 0.00 0.01 0.01 0.02 0.02 0.02 0.02 0.03 0.02 0.02 0.01 0.00 0.01 0.01 0.01 0.01 0.00 0.00 0.00 0.00 0.00 0.00 0.00 0.00 0.00 0.00 0.00
0.02 0.01 0.01 0.02 0.01 0.01 0.01 0.00 0.00 0.00 0.00 0.00 0.01 0.01 0.01 0.01 0.02 0.02 0.04 0.04 0.03 0.01 0.01 0.02 0.01 0.01 0.01 0.01 0.00 0.00 0.00 0.00 0.00 0.00 0.01 0.01 0.01 0.01
0.02 0.02 0.02 0.02 0.02 0.01 0.01 0.01 0.01 0.01 0.01 0.01 0.02 0.01 0.01 0.01 0.02 0.02 0.03 0.03 0.03 0.02 0.01 0.03 0.03 0.03 0.03 0.02 0.01 0.01 0.01 0.00 0.00 0.01 0.01 0.01 0.02 0.03
0.04 0.04 0.04 0.03 0.02 0.02 0.01 0.01 0.01 0.01 0.02 0.02 0.02 0.02 0.02 0.02 0.02 0.02 0.02 0.02 0.03 0.02 0.01 0.02 0.03 0.04 0.03 0.03 0.03 0.02 0.02 0.01 0.01 0.01 0.02 0.02 0.02 0.03
0.03 0.03 0.03 0.03 0.03 0.02 0.02 0.02 0.03 0.03 0.02 0.02 0.02 0.02 0.02 0.02 0.02 0.02 0.03 0.03 0.03 0.02 0.02 0.01 0.02 0.04 0.04 0.04 0.03 0.02 0.02 0.02 0.02 0.02 0.04 0.03 0.02 0.02
0.03 0.02 0.02 0.02 0.03 0.03 0.03 0.03 0.03 0.03 0.03 0.03 0.03 0.03 0.04 0.04 0.03 0.04 0.04 0.04 0.03 0.03 0.02 0.02 0.02 0.02 0.02 0.02 0.02 0.03 0.03 0.03 0.03 0.04 0.05 0.04 0.02 0.03
0.02 0.02 0.02 0.03 0.03 0.04 0.04 0.04 0.04 0.04 0.05 0.05 0.05 0.05 0.04 0.04 0.04 0.04 0.03 0.03 0.03 0.03 0.02 0.02 0.02 0.03 0.03 0.01 0.01 0.02 0.03 0.03 0.03 0.03 0.04 0.05 0.04 0.03
0.03 0.04 0.04 0.04 0.04 0.05 0.05 0.05 0.05 0.05 0.04 0.04 0.04 0.04 0.04 0.04 0.04 0.04 0.04 0.04 0.03 0.03 0.02 0.02 0.02 0.03 0.03 0.03 0.02 0.01 0.01 0.02 0.04 0.04 0.04 0.04 0.03 0.04
0.04 0.04 0.04 0.05 0.05 0.04 0.04 0.04 0.04 0.04 0.04 0.05 0.06 0.06 0.06 0.06 0.05 0.04 0.04 0.03 0.03 0.03 0.02 0.02 0.02 0.02 0.03 0.04 0.03 0.02 0.02 0.03 0.04 0.04 0.04 0.04 0.04 0.04
0.04 0.04 0.04 0.04 0.03 0.03 0.03 0.03 0.03 0.03 0.04 0.05 0.05 0.05 0.05 0.05 0.04 0.04 0.04 0.03 0.03 0.03 0.03 0.02 0.02 0.04 0.04 0.05 0.04 0.03 0.04 0.04 0.04 0.03 0.03 0.04 0.04 0.04
0.03 0.03 0.03 0.03 0.03 0.02 0.02 0.03 0.03 0.03 0.03 0.03 0.02 0.02 0.03 0.03 0.03 0.03 0.03 0.03 0.03 0.03 0.03 0.02 0.02 0.03 0.04 0.05 0.05 0.05 0.04 0.05 0.06 0.06 0.04 0.04 0.03 0.03
MSLP
1016.31 1016.42 1016.56 1016.72 1016.88 1017.01 1017.08 1017.08 1017.00 1016.86 1016.67 1016.47 1016.28 1016.13 1016.03 1015.98 1015.99 1016.03 1016.10 1016.19 1016.27 1016.34 1016.39 1016.44 1016.48 1016.52 1016.56 1016.61 1016.65 1016.70 1016.75 1016.79 1016.81 1016.81 1016.79 1016.75 1016.69 1016.62
1016.25 1016.36 1016.51 1016.67 1016.85 1017.00 1017.10 1017.14 1017.11 1017.01 1016.85 1016.66 1016.46 1016.27 1016.11 1015.98 1015.89 1015.83 1015.80 1015.79 1015.79 1015.80 1015.82 1015.85 1015.89 1015.94 1016.01 1016.08 1016.16 1016.23 1016.30 1016.35 1016.37 1016.36 1016.32 1016.26 1016.17 1016.08
1016.14 1016.25 1016.40 1016.57 1016.75 1016.92 1017.06 1017.14 1017.16 1017.11 1017.00 1016.83 1016.63 1016.42 1016.20 1016.00 1015.82 1015.66 1015.52 1015.41 1015.33 1015.27 1015.24 1015.23 1015.25 1015.30 1015.37 1015.45 1015.55 1015.64 1015.72 1015.78 1015.82 1015.82 1015.79 1015.72 1015.63 1015.53
1016.02 1016.11 1016.24 1016.40 1016.58 1016.77 1016.93 1017.06 1017.12 1017.12 1017.05 1016.92 1016.74 1016.51 1016.26 1016.00 1015.75 1015.50 1015.27 1015.07 1014.90 1014.77 1014.67 1014.62 1014.60 1014.61 1014.66 1014.73 1014.82 1014.92 1015.00 1015.08 1015.13 1015.15 1015.15 1015.11 1015.05 1014.97
1015.88 1015.95 1016.06 1016.20 1016.36 1016.55 1016.72 1016.87 1016.98 1017.02 1016.99 1016.89 1016.73 1016.50 1016.24 1015.95 1015.64 1015.34 1015.04 1014.77 1014.52 1014.32 1014.15 1014.03 1013.95 1013.91 1013.91 1013.94 1013.99 1014.07 1014.14 1014.22 1014.30 1014.35 1014.39 1014.41 1014.40 1014.37
1015.74 1015.79 1015.86 1015.96 1016.10 1016.27 1016.44 1016.60 1016.72 1016.78 1016.78 1016.71 1016.57 1016.36 1016.10 1015.80 1015.47 1015.13 1014.80 1014.48 1014.18 1013.91 1013.68 1013.49 1013.33 1013.22 1013.14 1013.10 1013.09 1013.12 1013.17 1013.24 1013.33 1013.42 1013.51 1013.59 1013.65 1013.69
1015.60 1015.61 1015.65 1015.72 1015.82 1015.95 1016.09 1016.23 1016.35 1016.42 1016.44 1016.38 1016.26 1016.07 1015.82 1015.53 1015.20 1014.86 1014.51 1014.17 1013.84 1013.53 1013.24 1012.98 1012.75 1012.55 1012.38 1012.26 1012.17 1012.13 1012.13 1012.18 1012.27 1012.39 1012.52 1012.66 1012.80 1012.91
1015.42 1015.42 1015.43 1015.46 1015.52 1015.60 1015.71 1015.81 1015.90 1015.96 1015.97 1015.91 1015.80 1015.63 1015.40 1015.12 1014.82 1014.49 1014.16 1013.82 1013.48 1013.15 1012.83 1012.51 1012.21 1011.93 1011.67 1011.45 1011.27 1011.15 1011.10 1011.11 1011.18 1011.30 1011.47 1011.65 1011.84 1012.02
1015.20 1015.19 1015.18 1015.18 1015.19 1015.23 1015.29 1015.35 1015.40 1015.42 1015.40 1015.34 1015.22 1015.06 1014.85 1014.60 1014.32 1014.03 1013.72 1013.41 1013.09 1012.76 1012.42 1012.07 1011.72 1011.37 1011.03 1010.72 1010.46 1010.26 1010.13 1010.09 1010.12 1010.23 1010.39 1010.60 1010.82 1011.03
1014.92 1014.92 1014.89 1014.87 1014.86 1014.85 1014.86 1014.87 1014.87 1014.85 1014.80 1014.71 1014.58 1014.41 1014.21 1013.99 1013.74 1013.48 1013.22 1012.94 1012.65 1012.34 1012.01 1011.65 1011.28 1010.88 1010.49 1010.11 1009.78 1009.50 1009.30 1009.19 1009.17 1009.24 1009.37 1009.56 1009.77 1009.98
1014.58 1014.59 1014.57 1014.54 1014.50 1014.46 1014.43 1014.40 1014.35 1014.28 1014.19 1014.07 1013.92 1013.75 1013.55 1013.34 1013.12 1012.90 1012.67 1012.43 1012.18 1011.91 1011.60 1011.26 1010.88 1010.47 1010.05 1009.63 1009.25 1008.91 1008.65 1008.47 1008.38 1008.38 1008.45 1008.58 1008.74 1008.91
1014.20 1014.22 1014.21 1014.17 1014.13 1014.07 1014.01 1013.94 1013.86 1013.76 1013.63 1013.49 1013.31 1013.13 1012.92 1012.72 1012.51 1012.31 1012.11 1011.91 1011.70 1011.46 1011.19 1010.88 1010.52 1010.13 1009.70 1009.27 1008.86 1008.48 1008.16 1007.92 1007.75 1007.67 1007.66 1007.71 1007.79 1007.88
1013.79 1013.83 1013.83 1013.80 1013.75 1013.69 1013.61 1013.52 1013.42 1013.29 1013.15 1012.98 1012.79 1012.59 1012.38 1012.17 1011.97 1011.78 1011.60 1011.42 1011.23 1011.02 1010.79 1010.51 1010.19 1009.82 1009.42 1009.00 1008.58 1008.18 1007.82 1007.51 1007.28 1007.11 1007.00 1006.95 1006.93 1006.93
1013.39 1013.43 1013.44 1013.42 1013.38 1013.32 1013.24 1013.15 1013.03 1012.90 1012.75 1012.57 1012.37 1012.16 1011.95 1011.73 1011.52 1011.33 1011.15 1010.97 1010.80 1010.61 1010.40 1010.16 1009.87 1009.54 1009.16 1008.76 1008.35 1007.93 1007.55 1007.19 1006.89 1006.64 1006.44 1006.29 1006.16 1006.07
1013.02 1013.07 1013.09 1013.07 1013.04 1012.98 1012.91 1012.82 1012.71 1012.59 1012.44 1012.27 1012.07 1011.86 1011.64 1011.41 1011.19 1010.99 1010.79 1010.61 1010.43 1010.25 1010.04 1009.82 1009.55 1009.24 1008.89 1008.51 1008.10 1007.69 1007.28 1006.89 1006.53 1006.21 1005.92 1005.68 1005.46 1005.28
1012.71 1012.76 1012.78 1012.77 1012.74 1012.69 1012.63 1012.56 1012.47 1012.36 1012.22 1012.07 1011.88 1011.68 1011.45 1011.22 1010.99 1010.76 1010.54 1010.34 1010.14 1009.93 1009.72 1009.49 1009.22 1008.92 1008.58 1008.20 1007.79 1007.37 1006.94 1006.51 1006.11 1005.73 1005.37 1005.06 1004.77 1004.52
1012.48 1012.54 1012.56 1012.55 1012.52 1012.48 1012.44 1012.38 1012.30 1012.22 1012.10 1011.97 1011.80 1011.61 1011.39 1011.15 1010.91 1010.66 1010.41 1010.17 1009.94 1009.70 1009.45 1009.19 1008.90 1008.57 1008.21 1007.81 1007.38 1006.93 1006.47 1006.01 1005.56 1005.14 1004.74 1004.37 1004.04 1003.75
1012.37 1012.42 1012.44 1012.44 1012.42 1012.38 1012.34 1012.30 1012.24 1012.17 1012.08 1011.97 1011.82 1011.64 1011.43 1011.20 1010.94 1010.67 1010.40 1010.12 1009.84 1009.55 1009.25 1008.93 1008.59 1008.21 1007.80 1007.35 1006.87 1006.37 1005.86 1005.35 1004.86 1004.39 1003.96 1003.56 1003.21 1002.91
1012.37 1012.43 1012.46 1012.46 1012.44 1012.41 1012.38 1012.34 1012.30 1012.24 1012.17 1012.07 1011.94 1011.77 1011.57 1011.34 1011.08 1010.80 1010.50 1010.18 1009.85 1009.51 1009.14 1008.74 1008.32 1007.86 1007.36 1006.83 1006.27 1005.70 1005.12 1004.55 1004.00 1003.49 1003.03 1002.62 1002.26 1001.97
1012.51 1012.58 1012.61 1012.62 1012.60 1012.58 1012.55 1012.51 1012.47 1012.42 1012.35 1012.26 1012.14 1011.98 1011.79 1011.56 1011.30 1011.01 1010.69 1010.34 1009.96 1009.55 1009.11 1008.63 1008.10 1007.54 1006.93 1006.29 1005.63 1004.95 1004.28 1003.63 1003.02 1002.46 1001.97 1001.55 1001.21 1000.93
1012.75 1012.84 1012.88 1012.90 1012.89 1012.87 1012.84 1012.80 1012.75 1012.69 1012.62 1012.52 1012.40 1012.25 1012.06 1011.83 1011.56 1011.26 1010.92 1010.54 1010.11 1009.64 1009.12 1008.55 1007.92 1007.24 1006.52 1005.75 1004.96 1004.17 1003.39 1002.66 1001.97 1001.36 1000.84 1000.41 1000.08 999.84
1013.08 1013.18 1013.24 1013.26 1013.26 1013.25 1013.21 1013.17 1013.11 1013.03 1012.94 1012.83 1012.69 1012.53 1012.33 1012.09 1011.82 1011.50 1011.14 1010.73 1010.26 1009.73 1009.14 1008.48 1007.75 1006.95 1006.10 1005.21 1004.30 1003.39 1002.51 1001.68 1000.93 1000.27 999.72 999.28 998.96 998.75
1013.45 1013.55 1013.62 1013.66 1013.68 1013.66 1013.62 1013.56 1013.48 1013.39 1013.27 1013.13 1012.96 1012.77 1012.54 1012.29 1011.99 1011.66 1011.27 1010.83 1010.32 1009.74 1009.08 1008.34 1007.52 1006.63 1005.68 1004.68 1003.66 1002.65 1001.68 1000.78 999.97 999.27 998.70 998.26 997.95 997.77
Thickness
5736 5736 5735 5736 5737 5736 5734 5731 5723 5716 5716 5721 5723 5724 5721 5718 5714 5712 5710 5708 5706 5704 5703 5701 5699 5698 5696 5695 5693 5692 5691 5690 5689 5688 5687 5686 5686 5685
5734 5733 5732 5734 5734 5734 5733 5731 5728 5722 5716 5720 5721 5721 5719 5717 5712 5711 5709 5707 5706 5704 5703 5701 5700 5698 5696 5694 5693 5691 5690 5689 5687 5686 5685 5685 5684 5683
5732 5731 5730 5730 5729 5729 5730 5728 5726 5723 5716 5717 5720 5718 5716 5713 5710 5709 5708 5707 5706 5705 5703 5702 5700 5698 5696 5694 5693 5691 5689 5687 5686 5685 5683 5682 5682 5681
5730 5729 5728 5728 5726 5724 5724 5723 5722 5721 5716 5711 5713 5713 5712 5711 5709 5707 5707 5707 5707 5706 5704 5702 5700 5697 5695 5694 5692 5690 5688 5686 5684 5683 5681 5680 5679 5678
5729 5727 5725 5724 5722 5721 5720 5719 5718 5718 5715 5711 5709 5710 5710 5709 5707 5705 5706 5705 5705 5705 5703 5701 5698 5696 5694 5693 5691 5689 5687 5685 5683 5681 5679 5678 5676 5675
5728 5726 5724 5722 5720 5717 5716 5715 5714 5712 5710 5708 5705 5705 5705 5706 5704 5700 5699 5701 5700 5701 5700 5698 5696 5694 5693 5691 5689 5687 5685 5683 5680 5679 5677 5675 5673 5672
5725 5724 5723 5721 5718 5716 5714 5711 5709 5707 5705 5703 5701 5701 5700 5699 5697 5697 5694 5695 5696 5696 5695 5695 5694 5692 5690 5688 5687 5685 5682 5680 5678 5676 5674 5672 5670 5668
5721 5720 5719 5717 5715 5712 5710 5707 5704 5701 5699 5696 5695 5693 5693 5694 5693 5691 5688 5685 5683 5689 5687 5686 5687 5687 5687 5687 5686 5684 5680 5678 5675 5673 5671 5668 5667 5665
5719 5717 5716 5717 5714 5711 5707 5704 5701 5698 5695 5692 5689 5688 5687 5688 5685 5683 5680 5678 5677 5680 5678 5677 5680 5679 5681 5681 5680 5678 5675 5673 5670 5668 5666 5664 5662 5660
5716 5715 5713 5711 5711 5708 5705 5701 5698 5696 5693 5689 5687 5686 5685 5683 5681 5678 5675 5674 5675 5675 5674 5669 5673 5673 5676 5675 5673 5671 5669 5667 5665 5662 5660 5658 5656 5654
5713 5712 5711 5708 5706 5703 5699 5696 5693 5692 5692 5689 5687 5684 5681 5678 5675 5670 5667 5664 5664 5667 5668 5664 5665 5665 5665 5665 5664 5662 5661 5659 5657 5655 5654 5652 5650 5647
5709 5708 5706 5704 5701 5698 5694 5690 5686 5685 5685 5683 5680 5678 5676 5674 5671 5666 5662 5658 5656 5657 5660 5657 5655 5653 5652 5655 5654 5653 5651 5649 5648 5647 5645 5643 5641 5637
5705 5704 5703 5699 5695 5692 5689 5685 5682 5679 5677 5675 5674 5674 5673 5671 5669 5666 5661 5655 5651 5649 5652 5648 5644 5642 5639 5641 5642 5641 5640 5639 5638 5637 5635 5634 5632 5628
5700 5699 5697 5694 5690 5686 5681 5679 5675 5671 5669 5667 5667 5666 5666 5665 5664 5662 5658 5654 5650 5646 5645 5640 5635 5631 5628 5627 5629 5630 5629 5628 5626 5626 5625 5625 5623 5620
5694 5692 5689 5686 5683 5679 5676 5672 5668 5664 5662 5660 5660 5660 5660 5659 5657 5654 5651 5648 5645 5642 5638 5633 5628 5625 5620 5617 5617 5617 5616 5615 5614 5613 5613 5612 5611 5610
5684 5683 5680 5677 5674 5672 5670 5665 5662 5660 5658 5655 5655 5655 5653 5650 5646 5643 5640 5637 5633 5631 5630 5625 5621 5616 5611 5608 5605 5605 5603 5602 5602 5601 5600 5600 5599 5598
5678 5674 5672 5670 5667 5665 5664 5662 5659 5655 5651 5649 5646 5644 5641 5638 5635 5632 5628 5624 5620 5618 5616 5614 5611 5607 5603 5598 5595 5594 5592 5591 5590 5587 5585 5585 5587 5585
5669 5667 5665 5663 5661 5659 5657 5655 5652 5649 5645 5642 5638 5634 5630 5626 5623 5620 5616 5612 5609 5606 5603 5601 5597 5594 5592 5591 5586 5582 5581 5578 5577 5575 5572 5571 5574 5575
5662 5660 5657 5656 5654 5652 5649 5647 5644 5640 5637 5632 5627 5623 5619 5615 5611 5607 5603 5600 5597 5594 5591 5588 5583 5578 5575 5577 5579 5573 5567 5566 5565 5563 5561 5560 5561 5565
5655 5652 5650 5647 5644 5641 5638 5636 5633 5630 5626 5621 5617 5612 5608 5603 5599 5595 5591 5587 5584 5581 5579 5576 5572 5567 5563 5563 5565 5565 5560 5556 5554 5553 5553 5554 5555 5557
5645 5643 5640 5637 5634 5631 5627 5624 5621 5617 5613 5609 5605 5600 5596 5591 5587 5583 5579 5575 5570 5568 5566 5564 5563 5559 5557 5554 5553 5555 5554 5551 5548 5544 5544 5544 5545 5548
5636 5633 5629 5626 5623 5619 5616 5612 5608 5604 5600 5596 5592 5587 5582 5578 5574 5570 5567 5563 5560 5557 5555 5554 5553 5550 5546 5543 5543 5544 5546 5545 5544 5542 5540 5539 5536 5540
5625 5622 5618 5615 5611 5607 5603 5599 5595 5591 5587 5582 5578 5573 5568 5564 5560 5557 5554 5551 5549 5546 5544 5543 5542 5540 5538 5536 5535 5536 5537 5538 5538 5538 5539 5540 5539 5539